Hourly Data Report for February 03, 2019

TORONTO CITY
ONTARIO
Current Station Operator: ECCC - MSC

43°40'00.000" N
79°24'00.000" W
112.50 m
6158355
71508
XTO

Download Data

Hourly Data (February 2019)
Hourly Data Report for February 3, 2019
TIME
LST
Temp Definition
°C
Dew Point Definition
°C
Rel Hum Definition
%
Precip. Amount Definition
mm

Wind Dir Definition
10's deg

Wind Spd Definition
km/h
Visibility Definition
km
Stn Press Definition
kPa
Hmdx Definition


Wind Chill Definition


Weather Definition


00:00 0.7 -0.7 91 0.0 LegendMM LegendMM   100.31     LegendNANA
01:00 0.7 -0.4 93 0.0 LegendMM LegendMM   100.28     LegendNANA
02:00 0.5 -0.4 94 0.0 LegendMM LegendMM   100.22     LegendNANA
03:00 0.5 -0.3 94 0.0 LegendMM LegendMM   100.18     LegendNANA
04:00 0.8 0.1 95 0.0 LegendMM LegendMM   100.15     LegendNANA
05:00 1.3 0.6 95 0.0 LegendMM LegendMM   100.12     LegendNANA
06:00 1.9 1.0 94 0.0 LegendMM LegendMM   100.10     LegendNANA
07:00 2.6 0.8 88 0.0 LegendMM LegendMM   100.04     LegendNANA
08:00 2.8 0.9 87 0.0 LegendMM LegendMM   99.98     LegendNANA
09:00 3.1 0.8 85 0.0 LegendMM LegendMM   99.99     LegendNANA
10:00 3.6 0.9 82 0.0 LegendMM LegendMM   99.96     LegendNANA
11:00 4.2 1.2 81 0.0 LegendMM LegendMM   99.93     LegendNANA
12:00 5.0 1.7 79 0.0 LegendMM LegendMM   99.83     LegendNANA
13:00 5.6 1.8 76 0.0 LegendMM LegendMM   99.72     LegendNANA
14:00 5.6 1.6 76 0.0 LegendMM LegendMM   99.70     LegendNANA
15:00 6.3 2.7 77 0.0 LegendMM LegendMM   99.67     LegendNANA
16:00 7.4 3.7 77 0.0 LegendMM LegendMM   99.69     LegendNANA
17:00 6.9 3.0 77 0.0 LegendMM LegendMM   99.70     LegendNANA
18:00 7.4 3.7 77 0.0 LegendMM LegendMM   99.71     LegendNANA
19:00 6.1 2.9 80 0.0 LegendMM LegendMM   99.75     LegendNANA
20:00 5.6 2.8 82 0.0 LegendMM LegendMM   99.76     LegendNANA
21:00 7.4 4.0 79 0.0 LegendMM LegendMM   99.76     LegendNANA
22:00 7.8 4.4 79 0.0 LegendMM LegendMM   99.76     LegendNANA
23:00 6.5 3.2 79 0.0 LegendMM LegendMM   99.82     LegendNANA

Notes on Data Quality.

Legend

  • E = Estimated
  • M = Missing
  • NA = Not Available*
  • [empty] = Indicates an unobserved value
Date modified: